Regional Weather Roundup
Issued by NWS

Home | Current Version | Previous Version | Text Only | Print | Product List | Glossary On
Versions: 1 2 3 4 5 6 7 8 9 10 11 12 13 14 15 16 17 18 19 20 21 22 23 24 25 26 27 28 29 30 31 32 33 34 35 36 37 38 39 40 41 42 43 44 45 46 47 48 49 50
000
ASUS44 KFWD 170915
RWRTX
NORTH TEXAS HOURLY WEATHER ROUNDUP
NATIONAL WEATHER SERVICE FORT WORTH TX
300 AM CST WED JAN 17 2018

NOTE: "FAIR" INDICATES FEW OR NO CLOUDS BELOW 12,000 FEET WITH NO
SIGNIFICANT WEATHER AND/OR OBSTRUCTIONS TO VISIBILITY.

TXZ118-119-171000-
DALLAS/FORT WORTH METROPLEX

CITY           SKY/WX    TMP DP  RH WIND       PRES   REMARKS
DFW AIRPORT    PTCLDY    17   4  56 N7        30.73S WCI   8
DALLAS LOVE    CLOUDY    17   3  54 N3        30.76S
FTW MEACHAM    PTCLDY    14   1  56 N6        30.74S WCI   5
DAL-EXECUTIVE  CLOUDY    16   1  51 N3        30.73S
FTW-ALLIANCE   CLOUDY     9   0  67 CALM      30.74S
FTW-NAS-JRB    CLOUDY    17   1  49 N6        30.76S WCI   9
FTW-SPINKS     PTCLDY    12   2  65 CALM      30.76S
ARLINGTON      PTCLDY    11   2  67 NW3       30.75R
GRAND PRAIRIE  PTCLDY    17   2  50 CALM      30.77R
ADDISON        CLOUDY    16   2  55 CALM      30.77R
MESQUITE       PTCLDY    15   4  60 CALM      30.77R
LANCASTER      PTCLDY    12   2  64 CALM      30.78R
$$

TXZ091>094-102>105-117-120-121-131>134-171000-
NORTH CENTRAL TEXAS

CITY           SKY/WX    TMP DP  RH WIND       PRES   REMARKS
SHRMAN/DENISON CLOUDY    12   2  62 E3        30.76R
GAINESVILLE    CLOUDY     9   1  69 CALM      30.76S
BOWIE          CLOUDY     8   0  69 CALM      30.72R
BRIDGEPORT     CLOUDY     7   2  82 CALM      30.76S
DENTON         PTCLDY     8   1  73 NW6       30.75S WCI  -2
MCKINNEY       CLOUDY    11   3  70 N6        30.75S WCI   1
BONHAM         PTCLDY     8   1  72 NW5       30.76R WCI   0
GREENVILLE     PTCLDY    18   7  62 N3        30.75S
ROCKWALL       CLOUDY    14   2  59 MISG      30.76R
TERRELL        PTCLDY    14   2  58 NW6       30.76R WCI   5
WAXAHACHIE     PTCLDY    11   5  77 N6        30.75S WCI   1
CLEBURNE       PTCLDY    12   3  67 N8        30.74S WCI   1
GRANBURY       CLOUDY    12   3  68 W5        30.76S WCI   4
$$

TXZ083>090-098>101-113>116-127>130-139>142-154-155-171000-
WESTERN NORTH TEXAS

CITY           SKY/WX    TMP DP  RH WIND       PRES   REMARKS
WICHITA FALLS  CLOUDY    12  -2  53 CALM      30.73R
WF-KICKAPOO    CLOUDY    13   0  56 CALM      30.76S
VERNON         CLOUDY     8  -7  49 SW5       30.73S WCI   0
ABILENE        CLOUDY     8  -1  66 S6        30.66S WCI  -2
ABILENE-DYESS  CLOUDY     9  -3  57 CALM      30.66S
GRAHAM           N/A      5   0  79 CALM      30.71S
BRECKENRIDGE   CLOUDY    13   1  57 CALM      30.71S
CISCO          CLOUDY    10  -2  56 CALM      30.68S
EASTLAND       CLOUDY     0  -4  80 CALM      30.70S
RANGER         CLOUDY     5  -1  77 NE3       30.69S
MINERAL WELLS  CLOUDY    11   0  61 W3        30.72S
STEPHENVILLE   CLOUDY    13   1  61 CALM      30.73R
COMANCHE       CLOUDY    13   1  58 CALM      30.70F
COLEMAN        CLOUDY    12  -1  56 NW3       30.68S
$$

TXZ143>147-156>162-174-175-171000-
CENTRAL TEXAS

CITY           SKY/WX    TMP DP  RH WIND       PRES   REMARKS
WACO           CLOUDY    14   6  70 NW6       30.76R WCI   5
WACO-MCGREGOR  CLOUDY    10   3  73 NW6       30.75S WCI   0
HILLSBORO      CLOUDY    14   4  67 N3        30.73S
CORSICANA      CLOUDY    15   5  64 N7        30.76R WCI   5
MEXIA          PTCLDY    15   3  58 N5        30.73S WCI   7
HEARNE         CLOUDY    15   9  77 CALM      30.76R
CAMERON        CLOUDY    17   7  64 N6        30.75S WCI   9
TEMPLE         CLOUDY    11   5  77 N7        30.74R WCI   0
KILLEEN        CLOUDY    11   4  70 N6        30.70R WCI   2
KILLEEN-SKYLRK CLOUDY    14   5  67 NW7       30.73R WCI   4
FORT HOOD      CLOUDY    12   4  67 NW7       30.68R WCI   2
GATESVILLE     PTCLDY    14   3  62 MISG      30.74R
LAMPASAS       CLOUDY    13   1  59 NW6       30.69R WCI   4
$$

TXZ095>097-106>112-122>126-135>138-148>153-164>167-171000-
EAST TEXAS

CITY           SKY/WX    TMP DP  RH WIND       PRES   REMARKS
PARIS          CLOUDY    11   3  70 N8        30.75R WCI  -1
SULPHUR SPRNGS CLOUDY    16   5  61 N9        30.77S WCI   5
MOUNT PLEASANT CLOUDY    13   3  63 NW5       30.77R WCI   6
GILMER         PTCLDY    13   2  63 MISG      30.74S
MINEOLA        CLOUDY    14   1  57 NE3       30.74S
TYLER          PTCLDY    13   2  61 CALM      30.73R
LONGVIEW       PTCLDY    12   4  70 N6        30.73R WCI   3
MARSHALL       PTCLDY    13   6  73 CALM      30.75S
ATHENS         PTCLDY    12   3  67 CALM      30.74R
PALESTINE      PTCLDY    13   8  78 N3        30.76R
JACKSONVILLE   CLOUDY    13   6  73 N3        30.72S
CENTER         FAIR      14   6  69 N6        30.73S WCI   5
NACOGDOCHES    CLOUDY    13   7  77 N6        30.73R WCI   4
LUFKIN         PTCLDY    17   7  64 N3        30.71S
$$

SUPPLEMENTAL OBSERVATIONS (NWS FORT WORTH AREA)

CITY           SKY/WX    TMP DP  RH WIND       PRES   REMARKS
CADDO GRASSLND   N/A    N/A N/A N/A NW1         N/A
PAT MAYSE LAKE   N/A    N/A N/A N/A NW1         N/A
GREENVILLE       N/A    N/A N/A N/A N8          N/A
CEDAR HILL       N/A    N/A N/A N/A NE2         N/A
LBJ GRASSLAND    N/A    N/A N/A N/A CALM        N/A
POSSUM KINGDOM   N/A    N/A N/A N/A S3          N/A
GRANBURY         N/A    N/A N/A N/A W6          N/A
COMANCHE         N/A    N/A N/A N/A NW6         N/A
MCGREGOR         N/A    N/A N/A N/A NW2         N/A
TEMPLE           N/A     19   7  58 N12         N/A  WCI   7
LAKE LIMESTONE   N/A     18  10  73 VRB10       N/A  WCI   6
$$

SUPPLEMENTAL OBSERVATIONS (NWS NORMAN AREA)

CITY           SKY/WX    TMP DP  RH WIND       PRES   REMARKS
GOODLETT         N/A      8  -8  49 S6        30.68S WCI  -2
ODELL            N/A      5  -5  61 S3        30.72F
CROWELL          N/A     11  -5  48 SW5       30.71S WCI   3
KNOX CITY        N/A      7  -8  52 W2        30.71S
SEYMOUR          N/A      9  -3  59 CALM      30.72S
MILLERS CREEK    N/A    N/A N/A N/A SW5         N/A
$$

SUPPLEMENTAL OBSERVATIONS (NWS SAN ANGELO AREA)

CITY           SKY/WX    TMP DP  RH WIND       PRES   REMARKS
WEINERT          N/A      7  -8  49 S2        30.71S
HASKELL          N/A     10  -4  52 S2        30.69S
THROCKMORTON     N/A     10  -1  61 SW1       30.71F
CLYDE            N/A     11  -3  55 SE3       30.66S
HAMBY            N/A    N/A N/A N/A S1          N/A
IVIE RESERVOIR   N/A     18  -2  41 NE3         N/A
COLORADO BEND    N/A    N/A N/A N/A NW1         N/A
$$

SUPPLEMENTAL OBSERVATIONS (NWS SHREVEPORT AREA)

CITY           SKY/WX    TMP DP  RH WIND       PRES   REMARKS
CLARKSVILLE      N/A    N/A N/A N/A N3          N/A
TEXARKANA        N/A    N/A N/A N/A CALM        N/A
LINDEN           N/A    N/A N/A N/A N1          N/A
CADDO LAKE       N/A    N/A N/A N/A CALM        N/A
GILMER           N/A    N/A N/A N/A VRB3        N/A
HENDERSON        N/A    N/A N/A N/A N3          N/A
LUFKIN           N/A     18   9  68 MISG        N/A
N SABINE NF      N/A     18  12  79 MISG        N/A
$$

SUPPLEMENTAL OBSERVATIONS ARE A COLLECTION OF AUTOMATED INSTRUMENTS
THAT ARE MAINTAINED BY A VARIETY OF FEDERAL AND STATE AGENCIES.
CERTAIN ELEMENTS...SUCH AS HUMIDITY VALUES AND SUSTAINED WIND
SPEEDS...MAY BE APPROXIMATED.





USA.gov is the U.S. government's official web portal to all federal, state and local government web resources and services.